Location: Ajisawe
(8.4333°N, 4.3833°E)
Time: 13:26:19
(UTC+00:00)

Courier 1B Rocket - Pass Details

Date: 28 April 2021
Orbit: 920 x 1202 km, 28.2° (Epoch: 07 May)

Event Time Altitude Azimuth Distance (km) Brightness Sun altitude
Rises 18:18:48 0° 313° (NW) 3,564 9.2 -7.2°
Reaches altitude 10° 18:23:15 10° 342° (NNW) 2,657 7.8 -8.3°
Maximum altitude 18:25:50 12° 6° (N) 2,507 7.3 -8.9°
Drops below altitude 10° 18:28:28 10° 31° (NNE) 2,719 7.2 -9.5°
Sets 18:33:08 0° 59° (ENE) 3,737 7.7 -10.6°
